User: anonymous   Login
Location: Pine Mountain Observatory
(43.7910°N, 120.9377°W)
Time: 22:15:16
(UTC-08:00)
Language:

IDEFIX/ARIANE 42P - Orbit

View from above orbital plane
View from above orbital plane
View from above satellite
View from above satellite

Ground track
Ground track

The orbit data is extracted from the following two-line orbital elements,

1 27422U 02021B   14353.71913177  .00000332  00000-0  14703-3 0  6694
2 27422 098.2779 027.1714 0013122 059.1088 050.4657 14.29109081656631
Epoch (UTC): 19 December 2014 17:15:32
Eccentricity: 0.0013122
inclination: 98.2779°
perigee height: 785 km
apogee height: 804 km
right ascension of ascending node: 27.1714°
argument of perigee: 59.1088°
revolutions per day: 14.29109081
mean anomaly at epoch: 50.4657°
orbit number at epoch: 65663

The dashed part of the orbit path shows where the satellite is in the earth's shadow,  

DLR